This is the latest recevied weather packets stored in our database for station/object OK1KKY-18. If no packets are shown the sender has not sent any weather packets the latest 10 day(s).
| Time | Temp. | Humidity | Pressure | Rain* | Wind** | Luminosity | Snow |
|---|---|---|---|---|---|---|---|
| 1777546062 | 10° C | 32% | 1030.4 hPa | - | - | - | - |
| 1777545462 | 10° C | 33% | 1030.5 hPa | - | - | - | - |
| 1777544866 | 10.56° C | 30% | 1030.7 hPa | - | - | - | - |
| 1777544260 | 10.56° C | 28% | 1030.6 hPa | - | - | - | - |
| 1777543661 | 11.11° C | 28% | 1030.6 hPa | - | - | - | - |
| 1777543060 | 11.11° C | 26% | 1030.8 hPa | - | - | - | - |
| 1777542460 | 10.56° C | 26% | 1030.7 hPa | - | - | - | - |
| 1777541861 | 10° C | 26% | 1030.6 hPa | - | - | - | - |
| 1777541260 | 10° C | 27% | 1030.8 hPa | - | - | - | - |
| 1777540661 | 10° C | 29% | 1031 hPa | - | - | - | - |
| 1777540060 | 9.44° C | 28% | 1031 hPa | - | - | - | - |
| 1777539460 | 8.89° C | 30% | 1031 hPa | - | - | - | - |
| 1777538860 | 8.89° C | 30% | 1031.1 hPa | - | - | - | - |
| 1777538260 | 8.33° C | 31% | 1031.2 hPa | - | - | - | - |
| 1777537661 | 8.33° C | 32% | 1031.2 hPa | - | - | - | - |
| 1777537061 | 8.33° C | 32% | 1031.1 hPa | - | - | - | - |
| 1777536461 | 7.78° C | 33% | 1031.1 hPa | - | - | - | - |
| 1777535861 | 7.78° C | 33% | 1031.1 hPa | - | - | - | - |
| 1777535261 | 7.22° C | 35% | 1031.2 hPa | - | - | - | - |
| 1777534661 | 7.22° C | 35% | 1031.3 hPa | - | - | - | - |
| 1777534060 | 6.67° C | 36% | 1031.2 hPa | - | - | - | - |
| 1777533460 | 6.67° C | 37% | 1031.3 hPa | - | - | - | - |
| 1777532860 | 6.11° C | 38% | 1031.4 hPa | - | - | - | - |
| 1777532261 | 6.11° C | 38% | 1031.4 hPa | - | - | - | - |
| 1777531661 | 5.56° C | 40% | 1031.5 hPa | - | - | - | - |
* Rain since midnight (hover to see other rain measurements)
** Current wind speed in m/s (hover to see current wind gust speed)